Zurück zum Katalog

STARLINK-4362

AktivKommunikationSSO
NORAD 53043·PAYLOAD·🇺🇸 United States

Gestartet Jul 11, 2022 von Vandenberg Space Force Base

Loading…

Nächste Überflüge (nächste 24 Stunden)

TLE

AktuellSource: CelesTrak SupGP

Epoche: Sep 14, 2026, 22:10 UTC

1 53043C 22077A   26257.92409722  .00064791  00000+0  20114-2 0  2573
2 53043  97.2852  72.8067 0001410  99.1976 208.0266 15.33404413    10

Verfolge STARLINK-4362 in Echtzeit mit AllMySat

Download on the App Store